Regional Weather Roundup
Issued by NWS

Home | Current Version | Previous Version | Text Only | Print | Product List | Glossary Off
Versions: 1 2 3 4 5 6 7 8 9 10 11 12 13 14 15 16 17 18 19 20 21 22 23 24 25 26 27 28 29 30 31 32 33 34 35 36 37 38 39 40 41 42 43 44 45 46 47 48 49 50

330
ASUS43 KIND 201409
RWRIN

WEATHER ROUNDUP FOR INDIANA
NATIONAL WEATHER SERVICE INDIANAPOLIS IN
900 AM EST MON FEB 20 2017

NOTE: "FAIR" INDICATES FEW OR NO CLOUDS BELOW 12,000 FEET WITH NO
SIGNIFICANT WEATHER AND/OR OBSTRUCTIONS TO VISIBILITY.

* - STATION DOES NOT REPORT WEATHER SUCH AS PRECIPITATION OR FOG.

+ - STATION NOT QUALITY CONTROLLED BY THE NATIONAL WEATHER SERVICE.
    USE DATA WITH CAUTION...ESPECIALLY DEWPOINT AND RELATIVE
    HUMIDITY OBSERVATIONS.

INZ001>003-010>013-019-020-201500-
NORTHWEST INDIANA

CITY           SKY/WX    TMP DP  RH WIND       PRES   REMARKS
GARY /AIRPORT/ PTSUNNY   50  45  81 SE8       30.16R FOG
KNOX *+        CLOUDY    43  34  70 SE5       30.18R
LA PORTE +     CLOUDY    41  39  93 SE5       30.19R FOG
MICHIGAN CITY+ CLOUDY    46  43  87 SE6       30.18S
MONTICELLO +   CLOUDY    43  42  95 SE3       30.18R FOG
RENSSELAER +     N/A     45  45 100 E5        30.17S FOG
VALPARAISO     MOSUNNY   46  44  93 SE7       30.18R FOG

$$

LMZ046-743>745-201500-
SOUTHERN LAKE MICHIGAN

STATION/POSITION TIME  TEMP    WIND        PRES    WAVE
                       AIR SEA DIR/SP/G            HT
                 (UTC) (F)     (DEG/KT/KT) (MB)    (FT)
BURNS HARBOR     1340   50     170/  8/ 13 1022.0R
MICHIGAN CITY    1340   47     110/  6/  7   N/A

$$

INZ004-005-014>016-021>024-201500-
NORTH CENTRAL INDIANA

CITY           SKY/WX    TMP DP  RH WIND       PRES   REMARKS
GOSHEN         CLOUDY    45  35  68 SE6       30.21R
LOGANSPORT +   FOG       43  41  93 E6        30.20S VSB 3/4
PERU/GRISSOM   FOG       42  42 100 SE7       30.18F VSB 1/4
ROCHESTER +      N/A     45  45 100 SE3       30.20S FOG
SOUTH BEND     CLOUDY    43  35  73 E6        30.20R
WARSAW +       CLOUDY    41  41 100 SE5       30.21S FOG

$$

INZ006>009-017-018-025>027-201500-
NORTHEAST INDIANA

CITY           SKY/WX    TMP DP  RH WIND       PRES   REMARKS
ANGOLA *+      SUNNY     39  37  93 E7        30.23S
AUBURN +       CLOUDY    41  34  75 E5        30.25S
FORT WAYNE     CLOUDY    40  37  89 E3        30.24R
HUNTINGTON +   FOG       40  38  96 CALM      30.22S VSB 3/4
KENDALLVILLE + CLOUDY    41  35  78 SE7       30.23S

$$

INZ028-029-035-036-043>045-051>053-201500-
WEST CENTRAL INDIANA

CITY           SKY/WX    TMP DP  RH WIND       PRES   REMARKS
GREENCASTLE +  FOG       43  43 100 SE5       30.19S VSB<1/4
LAFAYETTE      CLOUDY    45  45 100 E5        30.17S FOG
TERRE HAUTE    CLOUDY    46  44  93 SE8       30.17R FOG

$$

INZ030>032-037>040-046>048-054>057-064-065-201500-
CENTRAL INDIANA

CITY           SKY/WX    TMP DP  RH WIND       PRES   REMARKS
ANDERSON       FOG       41  41 100 CALM      30.22  VSB 1/4
CP ATTERBURY + CLOUDY    41  41 100 E6        30.21F VSB<1/4
COLUMBUS       FOG       37  37 100 CALM      30.22F VSB 0
FRANKFORT +    FOG       47  46  98 SE10      30.20S VSB 1
GREENWOOD *+   CLOUDY    43  43 100 SE6       30.21S VSB<1/4
INDIANAPOLIS   FOG       43  43 100 E7        30.20S VSB 1/8
-EAGLE CREEK   FOG       44  43  96 SE6       30.19S VSB<1/4
KOKOMO +       FOG       43  42  97 SE8       30.21S VSB 1/4
MARION +       FOG       40  40 100 CALM      30.22S VSB<1/4
MT COMFORT *+  CLOUDY    43  41  93 SE7       30.21S VSB<1/4
SHELBYVILLE    FOG       42  40  92 E6        30.21S VSB 1/4
ZIONSVILLE +   FOG       43  43 100 SE6       30.21S VSB<1/4

$$

INZ033-034-041-042-049-050-058-059-201500-
EAST CENTRAL INDIANA

CITY           SKY/WX    TMP DP  RH WIND       PRES   REMARKS
MUNCIE         CLOUDY    43  42  97 CALM      30.22S FOG

$$

INZ060-061-067>069-081>083-085>088-201500-
SOUTHWEST INDIANA

CITY           SKY/WX    TMP DP  RH WIND       PRES   REMARKS
EVANSVILLE     MOSUNNY   48  46  93 E5        30.16F FOG
HUNTINGBURG *+ MOSUNNY   48  46  93 SE6       30.18S
WASHINGTON +   CLOUDY    45  43  94 SE6       30.17S FOG

$$

INZ062-063-066-070>080-084-089>092-201500-
SOUTH CENTRAL AND SOUTHEAST INDIANA

CITY           SKY/WX    TMP DP  RH WIND       PRES   REMARKS
BEDFORD +      FOG       41  39  93 SE3       30.20S VSB 1/4
BLOOMINGTON    FOG       43  41  93 SE7       30.19S VSB 1/4
MADISON *+     CLOUDY    41  39  93 E5        30.24F VSB<1/4
NORTH VERNON + FOG      N/A N/A N/A E6        30.23S VSB<1/4
SEYMOUR +      FOG       41  41 100 E3        30.22S VSB<1/4

$$





USA.gov is the U.S. government's official web portal to all federal, state and local government web resources and services.